| time (UTC) | temp F | wind direction | speed MPH | gust MPH | rain 1hr in | rain 24hr in | rain mn in | humidity % | barometer mb |
| 20260506113217 | 51 | 166 | 0.0 | 0.0 | 0.00 | 0.00 | 0.00 | 78 | 1014.5 |
| 20260506112713 | 51 | 189 | 0.0 | 1.0 | 0.00 | 0.00 | 0.00 | 78 | 1014.4 |
| 20260506112211 | 52 | 180 | 0.0 | 1.0 | 0.00 | 0.00 | 0.00 | 77 | 1014.5 |
| 20260506111708 | 52 | 185 | 1.0 | 2.0 | 0.00 | 0.00 | 0.00 | 76 | 1014.4 |
| 20260506111206 | 52 | 180 | 0.0 | 1.0 | 0.00 | 0.00 | 0.00 | 76 | 1014.2 |
| 20260506110703 | 52 | 189 | 2.0 | 2.0 | 0.00 | 0.00 | 0.00 | 76 | 1014.2 |
| 20260506110201 | 53 | 197 | 1.0 | 1.0 | 0.00 | 0.00 | 0.00 | 75 | 1014.1 |
| 20260506105657 | 53 | 190 | 3.0 | 3.0 | 0.00 | 0.00 | 0.00 | 74 | 1014.4 |
| 20260506105154 | 53 | 181 | 0.0 | 0.0 | 0.00 | 0.00 | 0.00 | 73 | 1014.1 |
| 20260506104652 | 53 | 166 | 0.0 | 1.0 | 0.00 | 0.00 | 0.00 | 73 | 1014.3 |
| 20260506104149 | 53 | 192 | 0.0 | 1.0 | 0.00 | 0.00 | 0.00 | 73 | 1014.1 |
| 20260506103646 | 54 | 189 | 0.0 | 0.0 | 0.00 | 0.00 | 0.00 | 71 | 1014.1 |
| 20260506103143 | 54 | 177 | 0.0 | 0.0 | 0.00 | 0.00 | 0.00 | 70 | 1014.2 |
| 20260506102641 | 54 | 193 | 0.0 | 0.0 | 0.00 | 0.00 | 0.00 | 69 | 1014.1 |
| 20260506102138 | 55 | 188 | 1.0 | 1.0 | 0.00 | 0.00 | 0.00 | 68 | 1014.0 |
| 20260506101635 | 55 | 190 | 2.0 | 2.0 | 0.00 | 0.00 | 0.00 | 68 | 1014.0 |
| 20260506101132 | 54 | 185 | 0.0 | 0.0 | 0.00 | 0.00 | 0.00 | 69 | 1014.0 |
| 20260506100631 | 54 | 184 | 0.0 | 1.0 | 0.00 | 0.00 | 0.00 | 68 | 1014.2 |
| 20260506100128 | 55 | 185 | 0.0 | 0.0 | 0.00 | 0.00 | 0.00 | 69 | 1014.1 |
| 20260506095627 | 55 | 190 | 0.0 | 0.0 | 0.00 | 0.00 | 0.00 | 68 | 1013.8 |
| 20260506095123 | 55 | 197 | 1.0 | 1.0 | 0.00 | 0.00 | 0.00 | 66 | 1013.8 |
| 20260506094620 | 55 | 185 | 0.0 | 0.0 | 0.00 | 0.00 | 0.00 | 66 | 1013.5 |
| 20260506094118 | 55 | 189 | 1.0 | 2.0 | 0.00 | 0.00 | 0.00 | 67 | 1014.0 |
| 20260506093616 | 55 | 142 | 1.0 | 2.0 | 0.00 | 0.00 | 0.00 | 66 | 1013.6 |
| 20260506093113 | 56 | 121 | 1.0 | 1.0 | 0.00 | 0.00 | 0.00 | 66 | 1013.7 |
| 20260506092611 | 56 | 141 | 1.0 | 1.0 | 0.00 | 0.00 | 0.00 | 67 | 1013.7 |
| 20260506092108 | 55 | 133 | 1.0 | 2.0 | 0.00 | 0.00 | 0.00 | 68 | 1013.8 |
| 20260506091606 | 55 | 148 | 1.0 | 1.0 | 0.00 | 0.00 | 0.00 | 69 | 1013.6 |
| 20260506091103 | 56 | 164 | 1.0 | 1.0 | 0.00 | 0.00 | 0.00 | 71 | 1013.7 |
| 20260506090601 | 56 | 151 | 0.0 | 1.0 | 0.00 | 0.00 | 0.00 | 70 | 1013.4 |
| 20260506090057 | 57 | 181 | 1.0 | 1.0 | 0.00 | 0.00 | 0.00 | 70 | 1013.8 |
| 20260506085554 | 57 | 206 | 2.0 | 2.0 | 0.00 | 0.00 | 0.00 | 69 | 1013.5 |
| 20260506085050 | 57 | 195 | 3.0 | 3.0 | 0.00 | 0.00 | 0.00 | 69 | 1013.8 |
| 20260506084547 | 57 | 196 | 1.0 | 1.0 | 0.00 | 0.00 | 0.00 | 70 | 1013.8 |
| 20260506084043 | 57 | 182 | 1.0 | 1.0 | 0.00 | 0.00 | 0.00 | 69 | 1013.8 |
| 20260506083541 | 57 | 197 | 2.0 | 2.0 | 0.00 | 0.00 | 0.00 | 69 | 1013.8 |
| 20260506083038 | 57 | 201 | 3.0 | 3.0 | 0.00 | 0.00 | 0.00 | 69 | 1013.8 |
| 20260506082535 | 57 | 171 | 2.0 | 2.0 | 0.00 | 0.00 | 0.00 | 69 | 1013.8 |
| 20260506082030 | 57 | 238 | 1.0 | 1.0 | 0.00 | 0.00 | 0.00 | 69 | 1014.0 |
| 20260506081529 | 57 | 159 | 1.0 | 1.0 | 0.00 | 0.00 | 0.00 | 69 | 1014.0 |
| 20260506081026 | 58 | 147 | 1.0 | 2.0 | 0.00 | 0.00 | 0.00 | 68 | 1013.7 |
| 20260506080523 | 58 | 166 | 1.0 | 1.0 | 0.00 | 0.00 | 0.00 | 67 | 1013.8 |
| 20260506073507 | 60 | 220 | 1.0 | 1.0 | 0.00 | 0.00 | 0.00 | 62 | 1014.1 |
| 20260506073004 | 60 | 198 | 0.0 | 0.0 | 0.00 | 0.00 | 0.00 | 62 | 1013.8 |
| 20260506072501 | 60 | 257 | 1.0 | 1.0 | 0.00 | 0.00 | 0.00 | 61 | 1013.7 |
| 20260506071959 | 60 | 191 | 0.0 | 0.0 | 0.00 | 0.00 | 0.00 | 60 | 1014.0 |
| 20260506071456 | 60 | 225 | 1.0 | 1.0 | 0.00 | 0.00 | 0.00 | 60 | 1013.8 |
| 20260506070953 | 61 | 253 | 1.0 | 2.0 | 0.00 | 0.00 | 0.00 | 60 | 1013.7 |
| 20260506070450 | 60 | 219 | 3.0 | 3.0 | 0.00 | 0.00 | 0.00 | 60 | 1014.0 |
| 20260506062428 | 62 | 293 | 5.0 | 6.0 | 0.00 | 0.28 | 0.28 | 55 | 1013.6 |
| 20260506061923 | 62 | 238 | 2.0 | 2.0 | 0.00 | 0.28 | 0.28 | 56 | 1013.7 |
| 20260506061420 | 62 | 242 | 3.0 | 3.0 | 0.00 | 0.28 | 0.28 | 56 | 1013.4 |
| 20260506060918 | 62 | 264 | 2.0 | 2.0 | 0.00 | 0.28 | 0.28 | 55 | 1013.5 |
| 20260506060416 | 62 | 256 | 4.0 | 5.0 | 0.00 | 0.28 | 0.28 | 55 | 1013.6 |
| 20260506051348 | 64 | 287 | 4.0 | 5.0 | 0.00 | 0.28 | 0.28 | 51 | 1013.3 |
| 20260506050845 | 64 | 276 | 5.0 | 6.0 | 0.00 | 0.28 | 0.28 | 50 | 1013.3 |
| 20260506050343 | 64 | 280 | 3.0 | 3.0 | 0.00 | 0.28 | 0.28 | 50 | 1013.1 |
| 20260506044833 | 64 | 270 | 3.0 | 3.0 | 0.00 | 0.28 | 0.28 | 50 | 1012.8 |
| 20260506044331 | 64 | 267 | 7.0 | 8.0 | 0.00 | 0.28 | 0.28 | 50 | 1012.8 |
| 20260506043828 | 64 | 330 | 3.0 | 3.0 | 0.00 | 0.28 | 0.28 | 50 | 1013.0 |
| 20260506043325 | 65 | 252 | 3.0 | 3.0 | 0.00 | 0.28 | 0.28 | 50 | 1012.8 |
| 20260506042823 | 65 | 301 | 6.0 | 8.0 | 0.00 | 0.28 | 0.28 | 49 | 1012.7 |
| 20260506042322 | 65 | 279 | 6.0 | 7.0 | 0.00 | 0.28 | 0.28 | 49 | 1012.5 |
| 20260506041821 | 65 | 246 | 6.0 | 7.0 | 0.00 | 0.28 | 0.28 | 49 | 1012.4 |
| 20260506041317 | 65 | 269 | 5.0 | 7.0 | 0.00 | 0.28 | 0.28 | 48 | 1012.4 |
| 20260506040814 | 66 | 239 | 6.0 | 7.0 | 0.00 | 0.28 | 0.28 | 46 | 1012.2 |
| 20260506040312 | 66 | 285 | 5.0 | 6.0 | 0.00 | 0.28 | 0.28 | 45 | 1012.1 |
| 20260506035808 | 66 | 263 | 9.0 | 10.0 | 0.00 | 0.28 | 0.28 | 43 | 1012.2 |
| 20260506035306 | 66 | 249 | 5.0 | 6.0 | 0.00 | 0.28 | 0.28 | 40 | 1012.3 |
| 20260506034803 | 66 | 258 | 6.0 | 7.0 | 0.00 | 0.28 | 0.28 | 39 | 1012.1 |
| 20260506034259 | 67 | 259 | 6.0 | 7.0 | 0.00 | 0.28 | 0.28 | 38 | 1012.0 |
| 20260506033756 | 66 | 280 | 6.0 | 7.0 | 0.00 | 0.28 | 0.28 | 38 | 1011.8 |
| 20260506033253 | 67 | 272 | 5.0 | 6.0 | 0.00 | 0.28 | 0.28 | 37 | 1011.8 |
| 20260506032750 | 67 | 262 | 6.0 | 7.0 | 0.00 | 0.28 | 0.28 | 37 | 1011.8 |
| 20260506032247 | 67 | 289 | 6.0 | 8.0 | 0.00 | 0.28 | 0.28 | 36 | 1011.8 |
| 20260506031744 | 67 | 285 | 5.0 | 6.0 | 0.00 | 0.28 | 0.28 | 36 | 1011.7 |
| 20260506031241 | 67 | 270 | 6.0 | 7.0 | 0.00 | 0.28 | 0.28 | 36 | 1011.5 |
| 20260506030739 | 68 | 287 | 5.0 | 6.0 | 0.00 | 0.28 | 0.28 | 36 | 1011.6 |
| 20260506030237 | 68 | 314 | 5.0 | 6.0 | 0.00 | 0.28 | 0.28 | 35 | 1011.5 |
| 20260506025733 | 68 | 270 | 8.0 | 10.0 | 0.00 | 0.28 | 0.28 | 36 | 1011.5 |
| 20260506025230 | 68 | 287 | 6.0 | 7.0 | 0.00 | 0.28 | 0.28 | 36 | 1011.1 |
| 20260506024727 | 68 | 284 | 5.0 | 7.0 | 0.00 | 0.28 | 0.28 | 35 | 1011.1 |
| 20260506024223 | 68 | 275 | 5.0 | 7.0 | 0.00 | 0.28 | 0.28 | 37 | 1011.1 |
| 20260506023719 | 68 | 280 | 7.0 | 8.0 | 0.00 | 0.28 | 0.28 | 36 | 1011.0 |
| 20260506023217 | 68 | 281 | 8.0 | 9.0 | 0.00 | 0.28 | 0.28 | 36 | 1011.0 |
| 20260506022713 | 68 | 287 | 9.0 | 11.0 | 0.00 | 0.28 | 0.28 | 36 | 1010.8 |
| 20260506022211 | 68 | 328 | 9.0 | 13.0 | 0.00 | 0.28 | 0.28 | 36 | 1010.8 |
| 20260506021709 | 68 | 329 | 5.0 | 7.0 | 0.00 | 0.28 | 0.28 | 37 | 1010.6 |
| 20260506021206 | 68 | 296 | 8.0 | 9.0 | 0.00 | 0.28 | 0.28 | 36 | 1010.5 |
| 20260506020703 | 69 | 278 | 9.0 | 13.0 | 0.00 | 0.28 | 0.28 | 36 | 1010.4 |
| 20260506020201 | 69 | 290 | 10.0 | 13.0 | 0.00 | 0.28 | 0.28 | 36 | 1010.2 |
| 20260506015658 | 69 | 305 | 7.0 | 8.0 | 0.00 | 0.28 | 0.28 | 37 | 1010.3 |
| 20260506015155 | 69 | 291 | 8.0 | 10.0 | 0.00 | 0.28 | 0.28 | 36 | 1010.2 |
| 20260506014652 | 69 | 292 | 9.0 | 11.0 | 0.00 | 0.28 | 0.28 | 36 | 1010.2 |
| 20260506014148 | 70 | 295 | 12.0 | 14.0 | 0.00 | 0.28 | 0.28 | 35 | 1010.4 |
| 20260506013646 | 70 | 289 | 11.0 | 14.0 | 0.00 | 0.28 | 0.28 | 35 | 1010.1 |
| 20260506013143 | 71 | 294 | 9.0 | 10.0 | 0.00 | 0.28 | 0.28 | 33 | 1010.1 |
| 20260506012639 | 71 | 260 | 13.0 | 17.0 | 0.00 | 0.28 | 0.28 | 31 | 1010.1 |
| 20260506012136 | 71 | 171 | 11.0 | 14.0 | 0.00 | 0.28 | 0.28 | 31 | 1010.1 |
| 20260506011633 | 71 | 248 | 9.0 | 10.0 | 0.00 | 0.28 | 0.28 | 31 | 1009.9 |
| 20260506011129 | 71 | 254 | 11.0 | 14.0 | 0.00 | 0.28 | 0.28 | 31 | 1009.8 |
| 20260506010628 | 72 | 219 | 8.0 | 9.0 | 0.00 | 0.28 | 0.28 | 32 | 1009.8 |
| 20260506010125 | 72 | 315 | 11.0 | 14.0 | 0.00 | 0.28 | 0.28 | 31 | 1009.8 |
| 20260506005622 | 72 | 276 | 9.0 | 13.0 | 0.00 | 0.28 | 0.28 | 32 | 1009.8 |
| 20260506005118 | 72 | 251 | 9.0 | 13.0 | 0.00 | 0.28 | 0.28 | 32 | 1009.5 |
| 20260506004615 | 72 | 259 | 11.0 | 11.0 | 0.00 | 0.28 | 0.28 | 31 | 1009.5 |
| 20260506004112 | 72 | 262 | 12.0 | 14.0 | 0.00 | 0.28 | 0.28 | 31 | 1009.5 |
| 20260506003609 | 72 | 273 | 11.0 | 15.0 | 0.00 | 0.28 | 0.28 | 31 | 1009.4 |
| 20260506003105 | 72 | 279 | 11.0 | 16.0 | 0.00 | 0.28 | 0.28 | 31 | 1009.7 |
| 20260506002601 | 73 | 280 | 11.0 | 14.0 | 0.00 | 0.28 | 0.28 | 32 | 1009.5 |
| 20260506002057 | 73 | 247 | 10.0 | 13.0 | 0.00 | 0.28 | 0.28 | 31 | 1009.4 |
| 20260506001553 | 73 | 18 | 13.0 | 14.0 | 0.00 | 0.28 | 0.28 | 31 | 1009.3 |
| 20260506001050 | 73 | 295 | 8.0 | 9.0 | 0.00 | 0.28 | 0.28 | 32 | 1009.4 |
| 20260506000548 | 73 | 273 | 11.0 | 13.0 | 0.00 | 0.28 | 0.28 | 32 | 1009.4 |
| 20260506000045 | 73 | 186 | 7.0 | 8.0 | 0.00 | 0.28 | 0.28 | 33 | 1009.4 |
| 20260505235543 | 73 | 252 | 15.0 | 18.0 | 0.00 | 0.28 | 0.28 | 30 | 1009.3 |
| 20260505235040 | 73 | 245 | 9.0 | 11.0 | 0.00 | 0.28 | 0.28 | 30 | 1009.3 |
| 20260505234537 | 74 | 252 | 15.0 | 17.0 | 0.00 | 0.28 | 0.28 | 29 | 1009.2 |
| 20260505234033 | 74 | 277 | 8.0 | 9.0 | 0.00 | 0.28 | 0.28 | 32 | 1009.0 |
| 20260505233531 | 73 | 232 | 11.0 | 13.0 | 0.00 | 0.28 | 0.28 | 30 | 1009.1 |
| 20260505233028 | 73 | 247 | 9.0 | 10.0 | 0.00 | 0.28 | 0.28 | 31 | 1009.2 |
| 20260505232526 | 74 | 292 | 12.0 | 15.0 | 0.00 | 0.28 | 0.28 | 29 | 1009.1 |
| 20260505232023 | 73 | 234 | 6.0 | 7.0 | 0.00 | 0.28 | 0.28 | 32 | 1009.2 |
| 20260505231520 | 73 | 230 | 11.0 | 13.0 | 0.00 | 0.28 | 0.28 | 29 | 1009.2 |
| 20260505231019 | 73 | 282 | 12.0 | 14.0 | 0.00 | 0.28 | 0.28 | 29 | 1009.2 |
| 20260505230515 | 74 | 235 | 10.0 | 11.0 | 0.00 | 0.28 | 0.28 | 29 | 1009.2 |
| 20260505230012 | 75 | 202 | 10.0 | 14.0 | 0.00 | 0.28 | 0.28 | 31 | 1009.4 |
| 20260505225509 | 73 | 288 | 10.0 | 13.0 | 0.00 | 0.28 | 0.28 | 31 | 1009.4 |
| 20260505225005 | 73 | 236 | 15.0 | 18.0 | 0.00 | 0.28 | 0.28 | 29 | 1009.2 |
| 20260505224502 | 74 | 239 | 13.0 | 17.0 | 0.00 | 0.28 | 0.28 | 31 | 1009.4 |
| 20260505223959 | 73 | 256 | 10.0 | 13.0 | 0.00 | 0.28 | 0.28 | 31 | 1009.4 |
| 20260505223456 | 73 | 281 | 16.0 | 20.0 | 0.00 | 0.28 | 0.28 | 29 | 1009.3 |
| 20260505222952 | 73 | 272 | 10.0 | 11.0 | 0.00 | 0.28 | 0.28 | 32 | 1009.3 |
| 20260505222449 | 73 | 317 | 11.0 | 15.0 | 0.00 | 0.28 | 0.28 | 33 | 1009.6 |
| 20260505221944 | 73 | 229 | 11.0 | 13.0 | 0.00 | 0.28 | 0.28 | 31 | 1009.7 |
| 20260505221442 | 73 | 257 | 12.0 | 13.0 | 0.00 | 0.28 | 0.28 | 31 | 1009.7 |
| 20260505220939 | 74 | 249 | 11.0 | 13.0 | 0.00 | 0.28 | 0.28 | 33 | 1009.7 |
| 20260505220436 | 74 | 255 | 17.0 | 20.0 | 0.00 | 0.28 | 0.28 | 31 | 1009.7 |
| 20260505215934 | 74 | 283 | 13.0 | 16.0 | 0.00 | 0.28 | 0.28 | 32 | 1009.7 |
| 20260505215432 | 73 | 289 | 8.0 | 10.0 | 0.00 | 0.28 | 0.28 | 33 | 1009.8 |
| 20260505214929 | 73 | 260 | 10.0 | 14.0 | 0.00 | 0.28 | 0.28 | 33 | 1009.9 |
| 20260505214427 | 74 | 231 | 11.0 | 13.0 | 0.00 | 0.28 | 0.28 | 35 | 1009.8 |
| 20260505213924 | 73 | 275 | 13.0 | 17.0 | 0.00 | 0.28 | 0.28 | 33 | 1009.8 |
| 20260505213421 | 73 | 288 | 15.0 | 17.0 | 0.00 | 0.28 | 0.28 | 36 | 1009.7 |
| 20260505212917 | 73 | 275 | 17.0 | 21.0 | 0.00 | 0.28 | 0.28 | 36 | 1009.7 |
| 20260505212414 | 72 | 243 | 9.0 | 10.0 | 0.00 | 0.28 | 0.28 | 40 | 1009.7 |
| 20260505211911 | 72 | 275 | 11.0 | 15.0 | 0.00 | 0.28 | 0.28 | 38 | 1010.1 |
| 20260505211409 | 74 | 216 | 13.0 | 15.0 | 0.00 | 0.28 | 0.28 | 38 | 1009.7 |
| 20260505210904 | 73 | 256 | 11.0 | 13.0 | 0.00 | 0.28 | 0.28 | 39 | 1010.1 |
| 20260505210402 | 72 | 287 | 11.0 | 13.0 | 0.00 | 0.28 | 0.28 | 40 | 1010.4 |
| 20260505205859 | 73 | 255 | 14.0 | 18.0 | 0.00 | 0.28 | 0.28 | 40 | 1010.1 |
| 20260505205357 | 73 | 282 | 15.0 | 18.0 | 0.00 | 0.28 | 0.28 | 40 | 1010.2 |
| 20260505204853 | 73 | 280 | 13.0 | 16.0 | 0.00 | 0.28 | 0.28 | 40 | 1010.3 |
| 20260505204351 | 72 | 234 | 10.0 | 11.0 | 0.00 | 0.28 | 0.28 | 40 | 1010.2 |
| 20260505203848 | 74 | 238 | 12.0 | 15.0 | 0.00 | 0.28 | 0.28 | 39 | 1010.4 |
| 20260505203344 | 73 | 223 | 10.0 | 13.0 | 0.00 | 0.28 | 0.28 | 41 | 1010.2 |
| 20260505202841 | 73 | 239 | 12.0 | 14.0 | 0.00 | 0.28 | 0.28 | 39 | 1010.2 |
| 20260505202337 | 71 | 230 | 8.0 | 9.0 | 0.00 | 0.28 | 0.28 | 44 | 1010.6 |
| 20260505201834 | 73 | 232 | 10.0 | 13.0 | 0.00 | 0.28 | 0.28 | 43 | 1010.7 |
| 20260505201332 | 72 | 241 | 11.0 | 11.0 | 0.00 | 0.28 | 0.28 | 41 | 1010.5 |
| 20260505200830 | 72 | 266 | 8.0 | 10.0 | 0.00 | 0.28 | 0.28 | 43 | 1010.6 |
| 20260505200326 | 72 | 265 | 14.0 | 16.0 | 0.00 | 0.28 | 0.28 | 43 | 1010.6 |
| 20260505195822 | 71 | 308 | 4.0 | 5.0 | 0.00 | 0.28 | 0.28 | 50 | 1010.6 |
| 20260505195319 | 70 | 252 | 5.0 | 7.0 | 0.00 | 0.28 | 0.28 | 54 | 1010.8 |
| 20260505194816 | 71 | 240 | 5.0 | 6.0 | 0.00 | 0.28 | 0.28 | 53 | 1010.7 |
| 20260505194314 | 71 | 235 | 5.0 | 7.0 | 0.00 | 0.28 | 0.28 | 55 | 1010.9 |
| 20260505193808 | 70 | 277 | 3.0 | 3.0 | 0.00 | 0.28 | 0.28 | 53 | 1011.0 |
| 20260505193307 | 70 | 252 | 3.0 | 3.0 | 0.00 | 0.28 | 0.28 | 54 | 1010.8 |
| 20260505192805 | 70 | 280 | 7.0 | 8.0 | 0.00 | 0.28 | 0.28 | 52 | 1010.6 |
| 20260505192305 | 69 | 327 | 2.0 | 2.0 | 0.00 | 0.28 | 0.28 | 54 | 1010.9 |
| 20260505191800 | 69 | 206 | 2.0 | 2.0 | 0.00 | 0.28 | 0.28 | 54 | 1010.9 |
| 20260505191258 | 69 | 341 | 5.0 | 6.0 | 0.00 | 0.28 | 0.28 | 54 | 1011.0 |
| 20260505190754 | 69 | 320 | 4.0 | 5.0 | 0.00 | 0.28 | 0.28 | 54 | 1011.1 |
| 20260505190249 | 69 | 128 | 7.0 | 8.0 | 0.00 | 0.28 | 0.28 | 57 | 1011.5 |
| 20260505185746 | 69 | 121 | 2.0 | 2.0 | 0.00 | 0.28 | 0.28 | 57 | 1011.4 |
| 20260505185243 | 68 | 278 | 5.0 | 7.0 | 0.00 | 0.28 | 0.28 | 57 | 1011.6 |
| 20260505184738 | 68 | 195 | 5.0 | 6.0 | 0.00 | 0.28 | 0.28 | 59 | 1011.5 |
| 20260505184236 | 68 | 271 | 5.0 | 6.0 | 0.00 | 0.28 | 0.28 | 59 | 1011.8 |
| 20260505183733 | 68 | 270 | 5.0 | 6.0 | 0.00 | 0.28 | 0.28 | 60 | 1011.8 |
| 20260505183230 | 70 | 252 | 6.0 | 8.0 | 0.00 | 0.28 | 0.28 | 59 | 1011.6 |
| 20260505182726 | 69 | 279 | 5.0 | 6.0 | 0.00 | 0.28 | 0.28 | 60 | 1011.7 |
| 20260505182223 | 68 | 200 | 1.0 | 1.0 | 0.00 | 0.28 | 0.28 | 61 | 1012.0 |
| 20260505181720 | 67 | 251 | 2.0 | 2.0 | 0.00 | 0.28 | 0.28 | 62 | 1011.9 |
| 20260505181217 | 68 | 279 | 7.0 | 8.0 | 0.00 | 0.28 | 0.28 | 62 | 1012.0 |
| 20260505180714 | 67 | 4 | 5.0 | 6.0 | 0.00 | 0.28 | 0.28 | 63 | 1011.9 |
| 20260505180210 | 66 | 332 | 1.0 | 2.0 | 0.00 | 0.28 | 0.28 | 65 | 1012.1 |
| 20260505175706 | 66 | 336 | 3.0 | 5.0 | 0.00 | 0.28 | 0.28 | 63 | 1012.2 |
| 20260505175203 | 67 | 9 | 1.0 | 3.0 | 0.00 | 0.28 | 0.28 | 62 | 1012.1 |
| 20260505174700 | 67 | 227 | 3.0 | 3.0 | 0.00 | 0.28 | 0.28 | 61 | 1012.0 |
| 20260505174156 | 68 | 231 | 7.0 | 7.0 | 0.00 | 0.28 | 0.28 | 63 | 1012.2 |
| 20260505173653 | 67 | 168 | 1.0 | 1.0 | 0.00 | 0.28 | 0.28 | 65 | 1012.3 |
| 20260505173150 | 66 | 219 | 3.0 | 3.0 | 0.00 | 0.28 | 0.28 | 63 | 1012.2 |
| 20260505172647 | 67 | 195 | 3.0 | 3.0 | 0.00 | 0.28 | 0.28 | 63 | 1012.3 |
| 20260505172144 | 65 | 207 | 1.0 | 1.0 | 0.00 | 0.28 | 0.28 | 66 | 1012.5 |
| 20260505171643 | 65 | 189 | 1.0 | 1.0 | 0.00 | 0.28 | 0.28 | 67 | 1012.2 |
| 20260505171141 | 66 | 187 | 1.0 | 1.0 | 0.00 | 0.28 | 0.28 | 68 | 1012.2 |
| 20260505170638 | 66 | 188 | 0.0 | 1.0 | 0.00 | 0.28 | 0.28 | 66 | 1012.1 |
| 20260505170135 | 66 | 45 | 0.0 | 1.0 | 0.00 | 0.28 | 0.28 | 66 | 1012.3 |
| 20260505165634 | 65 | 81 | 1.0 | 1.0 | 0.00 | 0.28 | 0.28 | 66 | 1012.1 |
| 20260505165131 | 65 | 25 | 1.0 | 1.0 | 0.00 | 0.28 | 0.28 | 67 | 1012.2 |
| 20260505164626 | 64 | 309 | 0.0 | 1.0 | 0.00 | 0.28 | 0.28 | 71 | 1012.0 |
| 20260505164125 | 64 | 204 | 3.0 | 3.0 | 0.00 | 0.28 | 0.28 | 74 | 1012.2 |
| 20260505163623 | 63 | 294 | 0.0 | 1.0 | 0.00 | 0.28 | 0.28 | 74 | 1012.3 |
| 20260505163120 | 63 | 263 | 2.0 | 2.0 | 0.00 | 0.28 | 0.28 | 74 | 1012.1 |
| 20260505162617 | 63 | 353 | 2.0 | 2.0 | 0.00 | 0.28 | 0.28 | 75 | 1012.2 |
| 20260505162115 | 62 | 193 | 1.0 | 1.0 | 0.00 | 0.28 | 0.28 | 75 | 1012.3 |
| 20260505161612 | 63 | 274 | 3.0 | 3.0 | 0.00 | 0.28 | 0.28 | 75 | 1012.4 |
| 20260505161109 | 63 | 230 | 2.0 | 2.0 | 0.00 | 0.28 | 0.28 | 74 | 1012.7 |
| 20260505160607 | 62 | 261 | 2.0 | 2.0 | 0.00 | 0.28 | 0.28 | 74 | 1012.2 |
| 20260505160104 | 62 | 221 | 2.0 | 2.0 | 0.00 | 0.28 | 0.28 | 75 | 1012.1 |
| 20260505153043 | 61 | 190 | 1.0 | 1.0 | 0.00 | 0.28 | 0.28 | 83 | 1012.3 |
| 20260505152540 | 60 | 221 | 1.0 | 1.0 | 0.00 | 0.28 | 0.28 | 84 | 1012.2 |
| 20260505152036 | 60 | 204 | 0.0 | 1.0 | 0.00 | 0.28 | 0.28 | 86 | 1012.1 |
| 20260505151531 | 60 | 198 | 0.0 | 0.0 | 0.00 | 0.28 | 0.28 | 88 | 1012.1 |
| 20260505151029 | 59 | 205 | 0.0 | 0.0 | 0.00 | 0.28 | 0.28 | 88 | 1012.0 |
| 20260505150525 | 59 | 209 | 0.0 | 1.0 | 0.00 | 0.28 | 0.28 | 90 | 1012.2 |
| 20260505140450 | 58 | 106 | 4.0 | 6.0 | 0.00 | 0.28 | 0.28 | 95 | 1011.8 |
| 20260505124903 | 57 | 212 | 0.0 | 0.0 | 0.00 | 0.28 | 0.28 | 96 | 1011.1 |
| 20260505124401 | 57 | 205 | 0.0 | 0.0 | 0.00 | 0.28 | 0.28 | 96 | 1011.1 |
| 20260505123856 | 57 | 86 | 0.0 | 1.0 | 0.00 | 0.28 | 0.28 | 96 | 1011.1 |
| 20260505123353 | 57 | 285 | 2.0 | 2.0 | 0.00 | 0.28 | 0.28 | 96 | 1011.1 |
| 20260505122849 | 58 | 196 | 0.0 | 0.0 | 0.00 | 0.28 | 0.28 | 96 | 1010.6 |
| 20260505122347 | 57 | 163 | 0.0 | 0.0 | 0.00 | 0.28 | 0.28 | 95 | 1010.7 |
| 20260505121843 | 57 | 200 | 0.0 | 0.0 | 0.00 | 0.28 | 0.28 | 95 | 1010.9 |
| 20260505121340 | 57 | 214 | 0.0 | 0.0 | 0.00 | 0.28 | 0.28 | 95 | 1010.9 |
| 20260505120836 | 57 | 279 | 0.0 | 0.0 | 0.00 | 0.28 | 0.28 | 95 | 1010.6 |
| 20260505120332 | 57 | 199 | 0.0 | 0.0 | 0.00 | 0.28 | 0.28 | 95 | 1010.7 |
| 20260505115831 | 57 | 282 | 2.0 | 2.0 | 0.00 | 0.28 | 0.28 | 95 | 1010.8 |
| 20260505115329 | 57 | 274 | 0.0 | 0.0 | 0.00 | 0.28 | 0.28 | 95 | 1010.4 |
| 20260505114827 | 57 | 169 | 0.0 | 0.0 | 0.05 | 0.28 | 0.28 | 95 | 1010.6 |
| 20260505114323 | 57 | 355 | 1.0 | 1.0 | 0.05 | 0.28 | 0.28 | 95 | 1010.6 |
| 20260505113819 | 57 | 150 | 0.0 | 0.0 | 0.07 | 0.27 | 0.27 | 95 | 1010.6 |